[Date Prev][Date Next][Thread Prev][Thread Next] - [Date Index][Thread Index][Author Index]

2 Line ISS Keps 5-7



ISS
1 25544U 98067A   05127.32021694  .00011606  00000-0  92016-4 0  4139
2 25544 051.6436 110.1743 0008037 091.3931 050.2391 15.71799495369250
----
Via the sarex mailing list at AMSAT.ORG courtesy of AMSAT-NA.
To unsubscribe, send "unsubscribe sarex" to Majordomo@amsat.org



AMSAT Top AMSAT Home